Time,TemperatureF,DewpointF,PressureIn,WindDirection,WindDirectionDegrees,WindSpeedMPH,WindSpeedGustMPH,Humidity,HourlyPrecipIn,Conditions,Clouds,dailyrainin,SoftwareType,DateUTC
2013-07-14 00:00:00,72.0,72.0,29.99,East,90,0.0,0.0,100,0.00,,,0.00,Rainwise IP-100,2013-07-14 04:00:00,
2013-07-14 00:01:00,72.0,72.0,29.99,East,90,0.0,0.0,100,0.00,,,0.00,Rainwise IP-100,2013-07-14 04:01:00,
2013-07-14 00:02:00,72.0,72.0,29.98,East,90,0.0,0.0,100,0.00,,,0.00,Rainwise IP-100,2013-07-14 04:02:00,
2013-07-14 00:07:00,72.0,72.0,29.98,East,90,2.0,4.0,100,0.00,,,0.00,Rainwise IP-100,2013-07-14 04:07:00,
2013-07-14 00:12:00,72.0,72.0,29.98,East,90,3.0,7.0,100,0.00,,,0.00,Rainwise IP-100,2013-07-14 04:12:00,
2013-07-14 00:17:00,73.0,73.0,29.99,SE,135,4.0,6.0,100,0.00,,,0.00,Rainwise IP-100,2013-07-14 04:17:00,
2013-07-14 00:22:00,73.0,73.0,29.99,SE,135,2.0,7.0,100,0.00,,,0.00,Rainwise IP-100,2013-07-14 04:22:00,
2013-07-14 00:27:00,73.0,73.0,30.00,SE,135,7.0,8.0,100,0.00,,,0.00,Rainwise IP-100,2013-07-14 04:27:00,
2013-07-14 00:32:00,73.0,72.7,30.00,ESE,112,6.0,9.0,99,0.00,,,0.00,Rainwise IP-100,2013-07-14 04:32:00,
2013-07-14 00:38:00,73.0,72.7,30.00,SE,135,6.0,8.0,99,0.00,,,0.00,Rainwise IP-100,2013-07-14 04:38:00,
2013-07-14 00:43:00,73.0,72.3,30.00,SE,135,9.0,9.0,98,0.00,,,0.00,Rainwise IP-100,2013-07-14 04:43:00,
2013-07-14 00:48:00,74.0,73.3,30.00,East,90,3.0,11.0,98,0.00,,,0.00,Rainwise IP-100,2013-07-14 04:48:00,
2013-07-14 00:53:00,74.0,73.0,30.01,SE,135,7.0,9.0,96,0.00,,,0.00,Rainwise IP-100,2013-07-14 04:53:00,
2013-07-14 00:58:00,74.0,72.0,30.00,South,180,3.0,11.0,93,0.00,,,0.00,Rainwise IP-100,2013-07-14 04:58:00,
2013-07-14 01:03:00,75.0,72.3,30.00,SE,135,2.0,9.0,91,0.00,,,0.00,Rainwise IP-100,2013-07-14 05:03:00,
2013-07-14 01:08:00,75.0,72.3,30.00,SE,135,9.0,9.0,91,0.00,,,0.00,Rainwise IP-100,2013-07-14 05:08:00,
2013-07-14 01:13:00,75.0,71.3,30.00,SE,135,12.0,16.0,88,0.00,,,0.00,Rainwise IP-100,2013-07-14 05:13:00,
2013-07-14 01:19:00,76.0,72.0,30.00,ESE,112,7.0,16.0,88,0.00,,,0.00,Rainwise IP-100,2013-07-14 05:19:00,
2013-07-14 01:24:00,76.0,72.0,30.00,SE,135,9.0,10.0,88,0.00,,,0.00,Rainwise IP-100,2013-07-14 05:24:00,
2013-07-14 01:29:00,76.0,73.3,30.00,South,180,2.0,12.0,92,0.00,,,0.00,Rainwise IP-100,2013-07-14 05:29:00,
2013-07-14 01:34:00,76.0,72.3,30.00,South,180,1.0,13.0,89,0.00,,,0.00,Rainwise IP-100,2013-07-14 05:34:00,
2013-07-14 01:39:00,77.0,73.3,30.00,SE,135,12.0,15.0,88,0.00,,,0.00,Rainwise IP-100,2013-07-14 05:39:00,
2013-07-14 01:44:00,77.0,73.3,30.00,ESE,112,7.0,15.0,88,0.00,,,0.00,Rainwise IP-100,2013-07-14 05:44:00,
2013-07-14 01:49:00,77.0,74.0,30.00,SE,135,6.0,16.0,90,0.00,,,0.00,Rainwise IP-100,2013-07-14 05:49:00,
2013-07-14 01:54:00,77.0,74.0,30.00,SE,135,7.0,17.0,90,0.00,,,0.00,Rainwise IP-100,2013-07-14 05:54:00,
2013-07-14 02:00:00,77.0,73.7,30.00,SE,135,7.0,13.0,89,0.00,,,0.00,Rainwise IP-100,2013-07-14 06:00:00,
2013-07-14 02:05:00,77.0,73.3,30.00,SSE,157,7.0,15.0,88,0.00,,,0.00,Rainwise IP-100,2013-07-14 06:05:00,
2013-07-14 02:10:00,77.0,73.3,30.00,SE,135,6.0,16.0,88,0.00,,,0.00,Rainwise IP-100,2013-07-14 06:10:00,
2013-07-14 02:15:00,77.0,73.3,30.00,SSE,157,8.0,14.0,88,0.00,,,0.00,Rainwise IP-100,2013-07-14 06:15:00,
2013-07-14 02:20:00,77.0,73.3,30.00,ESE,112,7.0,15.0,88,0.00,,,0.00,Rainwise IP-100,2013-07-14 06:20:00,
2013-07-14 02:25:00,77.0,73.7,30.00,SE,135,6.0,18.0,89,0.00,,,0.00,Rainwise IP-100,2013-07-14 06:25:00,
2013-07-14 02:30:00,77.0,73.3,30.00,SE,135,6.0,16.0,88,0.00,,,0.00,Rainwise IP-100,2013-07-14 06:30:00,
2013-07-14 02:36:00,77.0,73.3,30.00,SE,135,10.0,16.0,88,0.00,,,0.00,Rainwise IP-100,2013-07-14 06:36:00,
2013-07-14 02:41:00,77.0,73.3,30.00,SSE,157,6.0,15.0,88,0.00,,,0.00,Rainwise IP-100,2013-07-14 06:41:00,
2013-07-14 02:46:00,77.0,73.7,30.00,South,180,9.0,16.0,89,0.00,,,0.00,Rainwise IP-100,2013-07-14 06:46:00,
2013-07-14 02:51:00,77.0,74.0,30.00,SSE,157,7.0,16.0,90,0.00,,,0.00,Rainwise IP-100,2013-07-14 06:51:00,
2013-07-14 02:56:00,78.0,74.0,30.00,ESE,112,15.0,15.0,88,0.00,,,0.00,Rainwise IP-100,2013-07-14 06:56:00,
2013-07-14 03:01:00,77.0,72.7,30.00,South,180,11.0,15.0,86,0.00,,,0.00,Rainwise IP-100,2013-07-14 07:01:00,
2013-07-14 03:06:00,77.0,72.3,29.99,South,180,10.0,17.0,85,0.00,,,0.00,Rainwise IP-100,2013-07-14 07:06:00,
2013-07-14 03:11:00,77.0,72.7,29.99,South,180,7.0,17.0,86,0.00,,,0.00,Rainwise IP-100,2013-07-14 07:11:00,
2013-07-14 03:16:00,77.0,73.3,29.99,SSE,157,7.0,16.0,88,0.00,,,0.00,Rainwise IP-100,2013-07-14 07:16:00,
2013-07-14 03:21:00,76.0,73.0,29.99,SE,135,6.0,13.0,91,0.06,,,0.01,Rainwise IP-100,2013-07-14 07:21:00,
2013-07-14 03:27:00,76.0,73.3,29.99,SE,135,6.0,11.0,92,0.06,,,0.01,Rainwise IP-100,2013-07-14 07:27:00,
2013-07-14 03:32:00,76.0,73.3,29.99,ESE,112,9.0,12.0,92,0.00,,,0.01,Rainwise IP-100,2013-07-14 07:32:00,
2013-07-14 03:37:00,76.0,73.0,29.98,SSE,157,8.0,13.0,91,0.00,,,0.01,Rainwise IP-100,2013-07-14 07:37:00,
2013-07-14 03:42:00,76.0,73.0,29.98,South,180,10.0,15.0,91,0.00,,,0.01,Rainwise IP-100,2013-07-14 07:42:00,
2013-07-14 03:47:00,76.0,72.7,29.99,SE,135,10.0,17.0,90,0.00,,,0.01,Rainwise IP-100,2013-07-14 07:47:00,
2013-07-14 03:52:00,77.0,74.0,29.99,South,180,7.0,15.0,90,0.00,,,0.01,Rainwise IP-100,2013-07-14 07:52:00,
2013-07-14 03:57:00,77.0,74.0,29.99,South,180,9.0,13.0,90,0.00,,,0.01,Rainwise IP-100,2013-07-14 07:57:00,
2013-07-14 04:03:00,76.0,72.7,29.98,South,180,5.0,13.0,90,0.00,,,0.01,Rainwise IP-100,2013-07-14 08:03:00,
2013-07-14 04:08:00,76.0,72.7,29.98,South,180,6.0,12.0,90,0.00,,,0.01,Rainwise IP-100,2013-07-14 08:08:00,
2013-07-14 04:13:00,76.0,73.0,29.98,South,180,7.0,10.0,91,0.00,,,0.01,Rainwise IP-100,2013-07-14 08:13:00,
2013-07-14 04:18:00,76.0,72.7,29.98,South,180,3.0,12.0,90,0.00,,,0.01,Rainwise IP-100,2013-07-14 08:18:00,
2013-07-14 04:23:00,76.0,72.7,29.98,South,180,3.0,7.0,90,0.00,,,0.01,Rainwise IP-100,2013-07-14 08:23:00,
2013-07-14 04:28:00,76.0,72.7,29.98,South,180,6.0,9.0,90,0.00,,,0.01,Rainwise IP-100,2013-07-14 08:28:00,
2013-07-14 04:33:00,76.0,72.7,29.98,South,180,7.0,13.0,90,0.00,,,0.01,Rainwise IP-100,2013-07-14 08:33:00,
2013-07-14 04:38:00,76.0,72.7,29.98,South,180,7.0,10.0,90,0.00,,,0.01,Rainwise IP-100,2013-07-14 08:38:00,
2013-07-14 04:44:00,76.0,72.7,29.98,South,180,6.0,13.0,90,0.00,,,0.01,Rainwise IP-100,2013-07-14 08:44:00,
2013-07-14 04:49:00,76.0,72.7,29.98,South,180,6.0,11.0,90,0.00,,,0.01,Rainwise IP-100,2013-07-14 08:49:00,
2013-07-14 04:54:00,76.0,72.3,29.98,South,180,9.0,10.0,89,0.00,,,0.01,Rainwise IP-100,2013-07-14 08:54:00,
2013-07-14 04:59:00,76.0,72.7,29.98,South,180,6.0,10.0,90,0.00,,,0.01,Rainwise IP-100,2013-07-14 08:59:00,
2013-07-14 05:04:00,76.0,72.7,29.98,South,180,8.0,12.0,90,0.00,,,0.01,Rainwise IP-100,2013-07-14 09:04:00,
2013-07-14 05:09:00,76.0,72.7,29.98,SSE,157,9.0,13.0,90,0.00,,,0.01,Rainwise IP-100,2013-07-14 09:09:00,
2013-07-14 05:14:00,76.0,73.3,29.98,South,180,8.0,12.0,92,0.00,,,0.01,Rainwise IP-100,2013-07-14 09:14:00,
2013-07-14 05:19:00,76.0,73.3,29.98,South,180,7.0,12.0,92,0.00,,,0.01,Rainwise IP-100,2013-07-14 09:19:00,
2013-07-14 05:25:00,76.0,73.3,29.98,South,180,6.0,13.0,92,0.00,,,0.01,Rainwise IP-100,2013-07-14 09:25:00,
2013-07-14 05:30:00,76.0,73.3,29.98,South,180,7.0,15.0,92,0.00,,,0.01,Rainwise IP-100,2013-07-14 09:30:00,
2013-07-14 05:35:00,76.0,73.3,29.98,SSE,157,11.0,15.0,92,0.00,,,0.01,Rainwise IP-100,2013-07-14 09:35:00,
2013-07-14 05:40:00,76.0,73.3,29.98,South,180,8.0,13.0,92,0.00,,,0.01,Rainwise IP-100,2013-07-14 09:40:00,
2013-07-14 05:45:00,76.0,73.3,29.98,South,180,6.0,13.0,92,0.00,,,0.01,Rainwise IP-100,2013-07-14 09:45:00,
2013-07-14 05:50:00,76.0,73.3,29.98,South,180,13.0,13.0,92,0.00,,,0.01,Rainwise IP-100,2013-07-14 09:50:00,
2013-07-14 05:55:00,76.0,73.3,29.98,South,180,10.0,15.0,92,0.00,,,0.01,Rainwise IP-100,2013-07-14 09:55:00,
2013-07-14 06:00:00,76.0,73.3,29.98,SSW,202,5.0,12.0,92,0.00,,,0.01,Rainwise IP-100,2013-07-14 10:00:00,
2013-07-14 06:05:00,76.0,72.7,29.98,South,180,8.0,13.0,90,0.00,,,0.01,Rainwise IP-100,2013-07-14 10:05:00,
2013-07-14 06:11:00,76.0,73.0,29.98,SSE,157,7.0,12.0,91,0.00,,,0.01,Rainwise IP-100,2013-07-14 10:11:00,
2013-07-14 06:16:00,76.0,73.0,29.98,SSE,157,7.0,10.0,91,0.00,,,0.01,Rainwise IP-100,2013-07-14 10:16:00,
2013-07-14 06:21:00,76.0,72.7,29.98,SSE,157,8.0,12.0,90,0.00,,,0.01,Rainwise IP-100,2013-07-14 10:21:00,
2013-07-14 06:26:00,76.0,72.0,29.98,SSE,157,6.0,15.0,88,0.00,,,0.01,Rainwise IP-100,2013-07-14 10:26:00,
2013-07-14 06:31:00,76.0,72.0,29.98,SSE,157,11.0,15.0,88,0.00,,,0.01,Rainwise IP-100,2013-07-14 10:31:00,
2013-07-14 06:36:00,76.0,71.7,29.98,South,180,7.0,12.0,87,0.00,,,0.01,Rainwise IP-100,2013-07-14 10:36:00,
2013-07-14 06:41:00,76.0,71.3,29.98,South,180,7.0,13.0,86,0.00,,,0.01,Rainwise IP-100,2013-07-14 10:41:00,
2013-07-14 06:46:00,77.0,73.0,29.98,SSE,157,6.0,12.0,87,0.00,,,0.01,Rainwise IP-100,2013-07-14 10:46:00,
2013-07-14 06:51:00,77.0,72.7,29.98,SSE,157,8.0,12.0,86,0.00,,,0.01,Rainwise IP-100,2013-07-14 10:51:00,
2013-07-14 06:57:00,77.0,72.3,29.98,South,180,7.0,12.0,85,0.00,,,0.01,Rainwise IP-100,2013-07-14 10:57:00,
2013-07-14 07:02:00,77.0,72.0,29.99,South,180,6.0,13.0,84,0.00,,,0.01,Rainwise IP-100,2013-07-14 11:02:00,
2013-07-14 07:07:00,77.0,71.7,29.99,SE,135,3.0,10.0,83,0.00,,,0.01,Rainwise IP-100,2013-07-14 11:07:00,
2013-07-14 07:12:00,77.0,72.0,29.99,South,180,7.0,10.0,84,0.00,,,0.01,Rainwise IP-100,2013-07-14 11:12:00,
2013-07-14 07:17:00,77.0,72.0,29.99,SSW,202,4.0,10.0,84,0.00,,,0.01,Rainwise IP-100,2013-07-14 11:17:00,
2013-07-14 07:22:00,77.0,72.0,30.00,South,180,6.0,9.0,84,0.00,,,0.01,Rainwise IP-100,2013-07-14 11:22:00,
2013-07-14 07:27:00,77.0,72.0,30.00,South,180,2.0,9.0,84,0.00,,,0.01,Rainwise IP-100,2013-07-14 11:27:00,
2013-07-14 07:33:00,77.0,72.3,30.00,SSE,157,3.0,7.0,85,0.00,,,0.01,Rainwise IP-100,2013-07-14 11:33:00,
2013-07-14 07:38:00,77.0,72.0,30.00,South,180,6.0,8.0,84,0.00,,,0.01,Rainwise IP-100,2013-07-14 11:38:00,
2013-07-14 07:43:00,77.0,72.3,30.00,SSE,157,4.0,7.0,85,0.00,,,0.01,Rainwise IP-100,2013-07-14 11:43:00,
2013-07-14 07:48:00,77.0,71.7,30.00,SSE,157,4.0,8.0,83,0.00,,,0.01,Rainwise IP-100,2013-07-14 11:48:00,
2013-07-14 07:53:00,78.0,72.7,30.01,South,180,6.0,7.0,83,0.00,,,0.01,Rainwise IP-100,2013-07-14 11:53:00,
2013-07-14 07:58:00,78.0,72.7,30.01,South,180,0.0,6.0,84,0.00,,,0.01,Rainwise IP-100,2013-07-14 11:58:00,
2013-07-14 08:03:00,78.0,72.7,30.02,South,180,0.0,4.0,84,0.00,,,0.01,Rainwise IP-100,2013-07-14 12:03:00,
2013-07-14 08:08:00,78.0,72.7,30.02,SW,225,2.0,4.0,84,0.00,,,0.01,Rainwise IP-100,2013-07-14 12:08:00,
2013-07-14 08:14:00,78.0,72.7,30.02,South,180,1.0,6.0,83,0.00,,,0.01,Rainwise IP-100,2013-07-14 12:14:00,
2013-07-14 08:19:00,79.0,73.3,30.02,SSW,202,3.0,6.0,83,0.00,,,0.01,Rainwise IP-100,2013-07-14 12:19:00,
2013-07-14 08:24:00,79.0,73.3,30.03,SSW,202,2.0,3.0,83,0.00,,,0.01,Rainwise IP-100,2013-07-14 12:24:00,
2013-07-14 08:29:00,79.0,72.7,30.03,South,180,4.0,6.0,81,0.00,,,0.01,Rainwise IP-100,2013-07-14 12:29:00,
2013-07-14 08:34:00,80.0,72.3,30.04,SSE,157,1.0,6.0,78,0.00,,,0.01,Rainwise IP-100,2013-07-14 12:34:00,
2013-07-14 08:39:00,80.0,72.0,30.04,South,180,5.0,9.0,77,0.00,,,0.01,Rainwise IP-100,2013-07-14 12:39:00,
2013-07-14 08:44:00,80.0,72.7,30.04,South,180,5.0,6.0,79,0.00,,,0.01,Rainwise IP-100,2013-07-14 12:44:00,
2013-07-14 08:49:00,81.0,74.0,30.04,WSW,247,0.0,5.0,79,0.00,,,0.01,Rainwise IP-100,2013-07-14 12:49:00,
2013-07-14 08:55:00,81.0,73.3,30.05,South,180,5.0,5.0,78,0.00,,,0.01,Rainwise IP-100,2013-07-14 12:55:00,
2013-07-14 09:00:00,81.0,73.0,30.05,SSE,157,6.0,6.0,77,0.00,,,0.01,Rainwise IP-100,2013-07-14 13:00:00,
2013-07-14 09:05:00,80.0,71.7,30.05,SSE,157,6.0,10.0,76,0.00,,,0.01,Rainwise IP-100,2013-07-14 13:05:00,
2013-07-14 09:10:00,80.0,71.7,30.05,South,180,4.0,9.0,76,0.00,,,0.01,Rainwise IP-100,2013-07-14 13:10:00,
2013-07-14 09:15:00,80.0,71.7,30.05,South,180,1.0,6.0,76,0.00,,,0.01,Rainwise IP-100,2013-07-14 13:15:00,
2013-07-14 09:20:00,81.0,72.7,30.05,SSE,157,4.0,7.0,76,0.00,,,0.01,Rainwise IP-100,2013-07-14 13:20:00,
2013-07-14 09:25:00,80.0,71.7,30.05,South,180,3.0,7.0,76,0.00,,,0.01,Rainwise IP-100,2013-07-14 13:25:00,
2013-07-14 09:31:00,81.0,72.7,30.05,South,180,4.0,5.0,76,0.00,,,0.01,Rainwise IP-100,2013-07-14 13:31:00,
2013-07-14 09:36:00,81.0,72.7,30.05,SE,135,4.0,7.0,76,0.00,,,0.01,Rainwise IP-100,2013-07-14 13:36:00,
2013-07-14 09:41:00,81.0,72.7,30.05,South,180,3.0,9.0,76,0.00,,,0.01,Rainwise IP-100,2013-07-14 13:41:00,
2013-07-14 09:46:00,81.0,72.3,30.05,SE,135,2.0,9.0,75,0.00,,,0.01,Rainwise IP-100,2013-07-14 13:46:00,
2013-07-14 09:51:00,82.0,73.3,30.05,ESE,112,6.0,9.0,75,0.00,,,0.01,Rainwise IP-100,2013-07-14 13:51:00,
2013-07-14 09:56:00,83.0,72.7,30.05,SE,135,5.0,8.0,71,0.00,,,0.01,Rainwise IP-100,2013-07-14 13:56:00,
2013-07-14 10:01:00,83.0,72.7,30.06,ESE,112,6.0,10.0,71,0.00,,,0.01,Rainwise IP-100,2013-07-14 14:01:00,
2013-07-14 10:06:00,83.0,72.3,30.06,ESE,112,2.0,10.0,70,0.00,,,0.01,Rainwise IP-100,2013-07-14 14:06:00,
2013-07-14 10:12:00,83.0,73.0,30.06,SSE,157,3.0,10.0,72,0.00,,,0.01,Rainwise IP-100,2013-07-14 14:12:00,
2013-07-14 10:17:00,83.0,72.0,30.06,South,180,6.0,9.0,69,0.00,,,0.01,Rainwise IP-100,2013-07-14 14:17:00,
2013-07-14 10:22:00,83.0,70.5,30.06,SSE,157,7.0,13.0,66,0.00,,,0.01,Rainwise IP-100,2013-07-14 14:22:00,
2013-07-14 10:27:00,83.0,71.0,30.06,SSE,157,1.0,10.0,67,0.00,,,0.01,Rainwise IP-100,2013-07-14 14:27:00,
2013-07-14 10:32:00,83.0,70.5,30.07,SE,135,10.0,10.0,66,0.00,,,0.01,Rainwise IP-100,2013-07-14 14:32:00,
2013-07-14 10:34:00,83.0,70.0,30.07,SE,135,5.0,10.0,65,0.00,,,0.01,Rainwise IP-100,2013-07-14 14:34:00,
2013-07-14 10:39:00,83.0,70.5,30.07,SE,135,9.0,14.0,66,0.00,,,0.01,Rainwise IP-100,2013-07-14 14:39:00,
2013-07-14 10:44:00,83.0,71.0,30.07,SE,135,5.0,13.0,67,0.00,,,0.01,Rainwise IP-100,2013-07-14 14:44:00,
2013-07-14 10:49:00,83.0,71.0,30.07,SE,135,7.0,10.0,67,0.00,,,0.01,Rainwise IP-100,2013-07-14 14:49:00,
2013-07-14 10:54:00,84.0,71.7,30.07,SE,135,7.0,13.0,66,0.00,,,0.01,Rainwise IP-100,2013-07-14 14:54:00,
2013-07-14 10:59:00,84.0,72.0,30.07,SSE,157,8.0,12.0,67,0.00,,,0.01,Rainwise IP-100,2013-07-14 14:59:00,
2013-07-14 11:05:00,84.0,72.0,30.07,SE,135,5.0,12.0,67,0.00,,,0.01,Rainwise IP-100,2013-07-14 15:05:00,
2013-07-14 11:10:00,84.0,71.3,30.08,South,180,10.0,14.0,65,0.00,,,0.01,Rainwise IP-100,2013-07-14 15:10:00,
2013-07-14 11:15:00,85.0,72.3,30.08,South,180,7.0,12.0,66,0.00,,,0.01,Rainwise IP-100,2013-07-14 15:15:00,
2013-07-14 11:20:00,84.0,72.0,30.08,SE,135,5.0,13.0,67,0.00,,,0.01,Rainwise IP-100,2013-07-14 15:20:00,
2013-07-14 11:25:00,84.0,72.3,30.08,SSE,157,7.0,12.0,68,0.00,,,0.01,Rainwise IP-100,2013-07-14 15:25:00,
2013-07-14 11:30:00,84.0,71.3,30.08,SE,135,6.0,15.0,65,0.00,,,0.01,Rainwise IP-100,2013-07-14 15:30:00,
2013-07-14 11:35:00,85.0,72.0,30.08,SE,135,7.0,12.0,65,0.00,,,0.01,Rainwise IP-100,2013-07-14 15:35:00,
2013-07-14 11:41:00,85.0,71.0,30.08,SE,135,6.0,14.0,63,0.00,,,0.01,Rainwise IP-100,2013-07-14 15:41:00,
2013-07-14 11:46:00,85.0,71.0,30.08,ESE,112,11.0,13.0,63,0.00,,,0.01,Rainwise IP-100,2013-07-14 15:46:00,
2013-07-14 11:51:00,85.0,71.0,30.09,South,180,7.0,12.0,63,0.00,,,0.01,Rainwise IP-100,2013-07-14 15:51:00,
2013-07-14 11:56:00,85.0,71.0,30.09,ESE,112,7.0,12.0,63,0.00,,,0.01,Rainwise IP-100,2013-07-14 15:56:00,
2013-07-14 12:01:00,85.0,71.0,30.10,South,180,6.0,10.0,63,0.00,,,0.01,Rainwise IP-100,2013-07-14 16:01:00,
2013-07-14 12:06:00,85.0,70.0,30.10,SE,135,9.0,12.0,61,0.00,,,0.01,Rainwise IP-100,2013-07-14 16:06:00,
2013-07-14 12:11:00,85.0,71.0,30.10,SSE,157,2.0,13.0,63,0.00,,,0.01,Rainwise IP-100,2013-07-14 16:11:00,
2013-07-14 12:16:00,84.0,70.0,30.10,SE,135,11.0,13.0,63,0.00,,,0.01,Rainwise IP-100,2013-07-14 16:16:00,
2013-07-14 12:22:00,84.0,71.0,30.10,SSE,157,6.0,12.0,64,0.00,,,0.01,Rainwise IP-100,2013-07-14 16:22:00,
2013-07-14 12:27:00,85.0,70.0,30.10,East,90,2.0,10.0,61,0.00,,,0.01,Rainwise IP-100,2013-07-14 16:27:00,
2013-07-14 12:32:00,84.0,70.0,30.10,SE,135,9.0,13.0,63,0.00,,,0.01,Rainwise IP-100,2013-07-14 16:32:00,
2013-07-14 12:37:00,84.0,70.0,30.10,SE,135,5.0,10.0,63,0.00,,,0.01,Rainwise IP-100,2013-07-14 16:37:00,
2013-07-14 12:42:00,84.0,71.0,30.09,SE,135,5.0,11.0,64,0.00,,,0.01,Rainwise IP-100,2013-07-14 16:42:00,
2013-07-14 12:47:00,84.0,71.0,30.09,ESE,112,6.0,10.0,64,0.00,,,0.01,Rainwise IP-100,2013-07-14 16:47:00,
2013-07-14 12:52:00,84.0,71.0,30.09,SE,135,8.0,13.0,64,0.00,,,0.01,Rainwise IP-100,2013-07-14 16:52:00,
2013-07-14 12:58:00,84.0,71.3,30.09,SE,135,9.0,10.0,65,0.00,,,0.01,Rainwise IP-100,2013-07-14 16:58:00,
2013-07-14 13:03:00,83.0,69.7,30.09,SE,135,6.0,13.0,64,0.00,,,0.01,Rainwise IP-100,2013-07-14 17:03:00,
2013-07-14 13:08:00,83.0,69.7,30.10,SE,135,7.0,13.0,64,0.00,,,0.01,Rainwise IP-100,2013-07-14 17:08:00,
2013-07-14 13:13:00,84.0,71.0,30.10,SE,135,13.0,13.0,64,0.00,,,0.01,Rainwise IP-100,2013-07-14 17:13:00,
2013-07-14 13:18:00,84.0,70.0,30.10,SE,135,9.0,13.0,63,0.00,,,0.01,Rainwise IP-100,2013-07-14 17:18:00,
2013-07-14 13:23:00,84.0,70.0,30.10,SSE,157,6.0,10.0,63,0.00,,,0.01,Rainwise IP-100,2013-07-14 17:23:00,
2013-07-14 13:28:00,84.0,70.0,30.09,SE,135,5.0,13.0,63,0.00,,,0.01,Rainwise IP-100,2013-07-14 17:28:00,
2013-07-14 13:33:00,84.0,71.0,30.09,ESE,112,7.0,11.0,64,0.00,,,0.01,Rainwise IP-100,2013-07-14 17:33:00,
2013-07-14 13:39:00,84.0,71.0,30.09,SE,135,6.0,10.0,64,0.00,,,0.01,Rainwise IP-100,2013-07-14 17:39:00,
2013-07-14 13:44:00,84.0,71.0,30.09,East,90,6.0,11.0,64,0.00,,,0.01,Rainwise IP-100,2013-07-14 17:44:00,
2013-07-14 13:49:00,85.0,71.0,30.09,SE,135,9.0,10.0,63,0.00,,,0.01,Rainwise IP-100,2013-07-14 17:49:00,
2013-07-14 13:54:00,85.0,71.0,30.09,SE,135,2.0,10.0,63,0.00,,,0.01,Rainwise IP-100,2013-07-14 17:54:00,
2013-07-14 13:59:00,85.0,70.5,30.09,SE,135,4.0,10.0,62,0.00,,,0.01,Rainwise IP-100,2013-07-14 17:59:00,
2013-07-14 14:04:00,85.0,71.0,30.09,East,90,1.0,10.0,63,0.00,,,0.01,Rainwise IP-100,2013-07-14 18:04:00,
2013-07-14 14:09:00,86.0,72.3,30.09,ESE,112,6.0,9.0,64,0.00,,,0.01,Rainwise IP-100,2013-07-14 18:09:00,
2013-07-14 14:15:00,86.0,72.0,30.09,SE,135,6.0,9.0,63,0.00,,,0.01,Rainwise IP-100,2013-07-14 18:15:00,
2013-07-14 14:20:00,86.0,71.0,30.09,East,90,2.0,10.0,61,0.00,,,0.01,Rainwise IP-100,2013-07-14 18:20:00,
2013-07-14 14:25:00,86.0,72.0,30.09,SE,135,3.0,10.0,63,0.00,,,0.01,Rainwise IP-100,2013-07-14 18:25:00,
2013-07-14 14:30:00,85.0,71.3,30.09,NE,45,9.0,9.0,64,0.00,,,0.01,Rainwise IP-100,2013-07-14 18:30:00,
2013-07-14 14:35:00,86.0,71.7,30.08,NE,45,6.0,13.0,62,0.00,,,0.01,Rainwise IP-100,2013-07-14 18:35:00,
2013-07-14 14:40:00,86.0,71.7,30.08,East,90,9.0,13.0,62,0.00,,,0.01,Rainwise IP-100,2013-07-14 18:40:00,
2013-07-14 14:45:00,85.0,72.0,30.08,East,90,7.0,11.0,65,0.00,,,0.01,Rainwise IP-100,2013-07-14 18:45:00,
2013-07-14 14:50:00,85.0,72.7,30.08,East,90,10.0,10.0,67,0.00,,,0.01,Rainwise IP-100,2013-07-14 18:50:00,
2013-07-14 14:55:00,85.0,72.7,30.08,NE,45,6.0,13.0,67,0.00,,,0.01,Rainwise IP-100,2013-07-14 18:55:00,
2013-07-14 15:01:00,86.0,73.7,30.08,East,90,6.0,10.0,67,0.00,,,0.01,Rainwise IP-100,2013-07-14 19:01:00,
2013-07-14 15:06:00,86.0,72.0,30.08,NE,45,9.0,11.0,63,0.00,,,0.01,Rainwise IP-100,2013-07-14 19:06:00,
2013-07-14 15:11:00,86.0,72.3,30.07,East,90,9.0,13.0,64,0.00,,,0.01,Rainwise IP-100,2013-07-14 19:11:00,
2013-07-14 15:16:00,86.0,72.3,30.07,East,90,4.0,13.0,64,0.00,,,0.01,Rainwise IP-100,2013-07-14 19:16:00,
2013-07-14 15:21:00,87.0,72.3,30.07,East,90,9.0,10.0,62,0.00,,,0.01,Rainwise IP-100,2013-07-14 19:21:00,
2013-07-14 15:26:00,87.0,72.0,30.07,East,90,8.0,12.0,61,0.00,,,0.01,Rainwise IP-100,2013-07-14 19:26:00,
2013-07-14 15:31:00,87.0,72.0,30.07,East,90,4.0,15.0,61,0.00,,,0.01,Rainwise IP-100,2013-07-14 19:31:00,
2013-07-14 15:36:00,87.0,72.3,30.07,East,90,9.0,12.0,62,0.00,,,0.01,Rainwise IP-100,2013-07-14 19:36:00,
2013-07-14 15:42:00,87.0,72.0,30.07,East,90,6.0,12.0,61,0.00,,,0.01,Rainwise IP-100,2013-07-14 19:42:00,
2013-07-14 15:47:00,87.0,72.0,30.07,ENE,67,10.0,11.0,61,0.00,,,0.01,Rainwise IP-100,2013-07-14 19:47:00,
2013-07-14 15:52:00,87.0,71.3,30.06,SE,135,4.0,15.0,60,0.00,,,0.01,Rainwise IP-100,2013-07-14 19:52:00,
2013-07-14 15:57:00,87.0,72.7,30.06,East,90,9.0,14.0,63,0.00,,,0.01,Rainwise IP-100,2013-07-14 19:57:00,
2013-07-14 16:02:00,86.0,71.7,30.06,NE,45,9.0,16.0,62,0.00,,,0.01,Rainwise IP-100,2013-07-14 20:02:00,
2013-07-14 16:07:00,86.0,71.7,30.06,ESE,112,7.0,12.0,62,0.00,,,0.01,Rainwise IP-100,2013-07-14 20:07:00,
2013-07-14 16:12:00,85.0,72.0,30.06,NE,45,9.0,17.0,65,0.00,,,0.01,Rainwise IP-100,2013-07-14 20:12:00,
2013-07-14 16:17:00,85.0,72.7,30.06,SE,135,6.0,16.0,67,0.00,,,0.01,Rainwise IP-100,2013-07-14 20:17:00,
2013-07-14 16:23:00,84.0,72.3,30.06,East,90,4.0,13.0,68,0.00,,,0.01,Rainwise IP-100,2013-07-14 20:23:00,
2013-07-14 16:28:00,84.0,72.7,30.06,East,90,4.0,16.0,69,0.00,,,0.01,Rainwise IP-100,2013-07-14 20:28:00,
2013-07-14 16:33:00,84.0,73.7,30.06,East,90,8.0,17.0,71,0.00,,,0.01,Rainwise IP-100,2013-07-14 20:33:00,
2013-07-14 16:38:00,83.0,73.0,30.06,East,90,7.0,18.0,72,0.00,,,0.01,Rainwise IP-100,2013-07-14 20:38:00,
2013-07-14 16:43:00,82.0,72.0,30.06,East,90,15.0,19.0,72,0.00,,,0.01,Rainwise IP-100,2013-07-14 20:43:00,
2013-07-14 16:48:00,82.0,73.3,30.06,NE,45,12.0,15.0,75,0.00,,,0.01,Rainwise IP-100,2013-07-14 20:48:00,
2013-07-14 16:53:00,82.0,73.7,30.05,East,90,8.0,17.0,76,0.00,,,0.01,Rainwise IP-100,2013-07-14 20:53:00,
2013-07-14 16:58:00,82.0,73.7,30.05,East,90,9.0,15.0,76,0.00,,,0.01,Rainwise IP-100,2013-07-14 20:58:00,
2013-07-14 17:04:00,82.0,73.7,30.06,ESE,112,2.0,14.0,76,0.00,,,0.01,Rainwise IP-100,2013-07-14 21:04:00,
2013-07-14 17:09:00,82.0,73.7,30.05,SE,135,3.0,16.0,76,0.00,,,0.01,Rainwise IP-100,2013-07-14 21:09:00,
2013-07-14 17:14:00,81.0,71.7,30.06,East,90,8.0,13.0,73,0.00,,,0.01,Rainwise IP-100,2013-07-14 21:14:00,
2013-07-14 17:19:00,81.0,71.7,30.06,East,90,5.0,13.0,73,0.00,,,0.01,Rainwise IP-100,2013-07-14 21:19:00,
2013-07-14 17:24:00,81.0,71.3,30.06,SE,135,8.0,12.0,72,0.00,,,0.01,Rainwise IP-100,2013-07-14 21:24:00,
2013-07-14 17:29:00,81.0,72.3,30.06,ESE,112,2.0,12.0,75,0.00,,,0.01,Rainwise IP-100,2013-07-14 21:29:00,
2013-07-14 17:34:00,81.0,72.7,30.06,East,90,7.0,12.0,76,0.00,,,0.01,Rainwise IP-100,2013-07-14 21:34:00,
2013-07-14 17:39:00,81.0,72.7,30.06,East,90,13.0,13.0,76,0.00,,,0.01,Rainwise IP-100,2013-07-14 21:39:00,
2013-07-14 17:44:00,81.0,72.7,30.05,NE,45,12.0,15.0,76,0.00,,,0.01,Rainwise IP-100,2013-07-14 21:44:00,
2013-07-14 17:50:00,81.0,72.3,30.05,ENE,67,9.0,15.0,75,0.00,,,0.01,Rainwise IP-100,2013-07-14 21:50:00,
2013-07-14 17:55:00,81.0,72.7,30.05,NE,45,9.0,14.0,76,0.00,,,0.01,Rainwise IP-100,2013-07-14 21:55:00,
2013-07-14 18:00:00,81.0,72.0,30.05,East,90,6.0,12.0,74,0.00,,,0.01,Rainwise IP-100,2013-07-14 22:00:00,
2013-07-14 18:05:00,81.0,72.3,30.06,NE,45,6.0,9.0,75,0.00,,,0.01,Rainwise IP-100,2013-07-14 22:05:00,
2013-07-14 18:10:00,80.0,71.0,30.06,East,90,6.0,10.0,74,0.00,,,0.01,Rainwise IP-100,2013-07-14 22:10:00,
2013-07-14 18:15:00,80.0,71.3,30.06,NE,45,9.0,10.0,75,0.00,,,0.01,Rainwise IP-100,2013-07-14 22:15:00,
2013-07-14 18:20:00,80.0,70.5,30.06,ENE,67,9.0,11.0,73,0.00,,,0.01,Rainwise IP-100,2013-07-14 22:20:00,
2013-07-14 18:26:00,80.0,71.3,30.06,NE,45,3.0,10.0,75,0.00,,,0.01,Rainwise IP-100,2013-07-14 22:26:00,
2013-07-14 18:31:00,80.0,72.3,30.06,NE,45,6.0,9.0,78,0.00,,,0.01,Rainwise IP-100,2013-07-14 22:31:00,
2013-07-14 18:36:00,80.0,72.0,30.06,West,270,6.0,7.0,77,0.00,,,0.01,Rainwise IP-100,2013-07-14 22:36:00,
2013-07-14 18:41:00,77.0,72.0,30.06,West,270,11.0,16.0,84,0.00,,,0.01,Rainwise IP-100,2013-07-14 22:41:00,
2013-07-14 18:46:00,75.0,71.3,30.06,West,270,12.0,16.0,87,0.06,,,0.02,Rainwise IP-100,2013-07-14 22:46:00,
2013-07-14 18:51:00,75.0,71.7,30.06,West,270,12.0,15.0,89,0.06,,,0.02,Rainwise IP-100,2013-07-14 22:51:00,
2013-07-14 18:56:00,74.0,71.3,30.06,West,270,3.0,13.0,91,0.06,,,0.03,Rainwise IP-100,2013-07-14 22:56:00,
2013-07-14 19:01:00,74.0,71.3,30.07,West,270,5.0,9.0,91,0.06,,,0.03,Rainwise IP-100,2013-07-14 23:01:00,
2013-07-14 19:07:00,74.0,71.7,30.07,West,270,8.0,13.0,92,0.06,,,0.04,Rainwise IP-100,2013-07-14 23:07:00,
2013-07-14 19:12:00,73.0,70.5,30.07,NW,315,7.0,12.0,92,0.12,,,0.05,Rainwise IP-100,2013-07-14 23:12:00,
2013-07-14 19:17:00,73.0,70.5,30.07,North,360,0.0,11.0,92,0.12,,,0.06,Rainwise IP-100,2013-07-14 23:17:00,
2013-07-14 19:22:00,73.0,71.3,30.07,NNE,22,7.0,12.0,94,0.12,,,0.07,Rainwise IP-100,2013-07-14 23:22:00,
2013-07-14 19:27:00,72.0,70.0,30.07,NW,315,7.0,11.0,94,0.12,,,0.08,Rainwise IP-100,2013-07-14 23:27:00,
2013-07-14 19:32:00,72.0,70.5,30.07,West,270,5.0,12.0,95,0.06,,,0.08,Rainwise IP-100,2013-07-14 23:32:00,
2013-07-14 19:37:00,72.0,71.0,30.07,West,270,10.0,12.0,96,0.06,,,0.09,Rainwise IP-100,2013-07-14 23:37:00,
2013-07-14 19:42:00,72.0,71.0,30.06,West,270,6.0,17.0,96,0.18,,,0.12,Rainwise IP-100,2013-07-14 23:42:00,
2013-07-14 19:48:00,72.0,71.0,30.06,WNW,292,10.0,17.0,96,0.54,,,0.19,Rainwise IP-100,2013-07-14 23:48:00,
2013-07-14 19:53:00,72.0,71.3,30.07,West,270,9.0,16.0,97,0.66,,,0.23,Rainwise IP-100,2013-07-14 23:53:00,
2013-07-14 19:58:00,71.0,70.0,30.06,West,270,10.0,14.0,97,0.42,,,0.26,Rainwise IP-100,2013-07-14 23:58:00,
2013-07-14 20:03:00,71.0,70.0,30.06,WNW,292,6.0,13.0,97,0.24,,,0.27,Rainwise IP-100,2013-07-15 00:03:00,
2013-07-14 20:08:00,71.0,70.0,30.06,North,360,9.0,10.0,97,0.18,,,0.29,Rainwise IP-100,2013-07-15 00:08:00,
2013-07-14 20:13:00,71.0,70.0,30.07,NW,315,6.0,10.0,97,0.12,,,0.29,Rainwise IP-100,2013-07-15 00:13:00,
2013-07-14 20:18:00,71.0,70.0,30.06,WNW,292,12.0,12.0,97,0.00,,,0.29,Rainwise IP-100,2013-07-15 00:18:00,
2013-07-14 20:23:00,71.0,70.0,30.06,North,360,6.0,12.0,97,0.06,,,0.30,Rainwise IP-100,2013-07-15 00:23:00,
2013-07-14 20:29:00,71.0,70.0,30.06,West,270,4.0,12.0,97,0.06,,,0.30,Rainwise IP-100,2013-07-15 00:29:00,
2013-07-14 20:34:00,71.0,70.0,30.06,West,270,6.0,9.0,98,0.00,,,0.30,Rainwise IP-100,2013-07-15 00:34:00,
2013-07-14 20:39:00,71.0,70.0,30.05,NW,315,7.0,12.0,97,0.00,,,0.30,Rainwise IP-100,2013-07-15 00:39:00,
2013-07-14 20:44:00,71.0,70.0,30.05,West,270,7.0,9.0,97,0.06,,,0.31,Rainwise IP-100,2013-07-15 00:44:00,
2013-07-14 20:49:00,71.0,70.0,30.05,NW,315,1.0,10.0,98,0.06,,,0.31,Rainwise IP-100,2013-07-15 00:49:00,
2013-07-14 20:54:00,71.0,70.0,30.05,North,360,5.0,8.0,98,0.00,,,0.31,Rainwise IP-100,2013-07-15 00:54:00,
2013-07-14 20:59:00,71.0,70.0,30.05,North,360,5.0,7.0,98,0.00,,,0.32,Rainwise IP-100,2013-07-15 00:59:00,
2013-07-14 21:04:00,71.0,70.0,30.05,NW,315,3.0,6.0,98,0.06,,,0.32,Rainwise IP-100,2013-07-15 01:04:00,
2013-07-14 21:10:00,72.0,71.3,30.05,NW,315,2.0,7.0,97,0.06,,,0.32,Rainwise IP-100,2013-07-15 01:10:00,
2013-07-14 21:15:00,72.0,71.3,30.05,WNW,292,3.0,7.0,97,0.00,,,0.33,Rainwise IP-100,2013-07-15 01:15:00,
2013-07-14 21:20:00,72.0,71.3,30.05,North,360,4.0,6.0,98,0.06,,,0.33,Rainwise IP-100,2013-07-15 01:20:00,
2013-07-14 21:25:00,72.0,71.3,30.05,NW,315,2.0,6.0,97,0.00,,,0.33,Rainwise IP-100,2013-07-15 01:25:00,
2013-07-14 21:30:00,72.0,71.3,30.05,NW,315,3.0,7.0,98,0.00,,,0.33,Rainwise IP-100,2013-07-15 01:30:00,
2013-07-14 21:35:00,72.0,71.3,30.04,NW,315,0.0,5.0,97,0.00,,,0.33,Rainwise IP-100,2013-07-15 01:35:00,
2013-07-14 21:40:00,72.0,71.3,30.04,West,270,5.0,6.0,97,0.00,,,0.33,Rainwise IP-100,2013-07-15 01:40:00,
2013-07-14 21:45:00,72.0,71.3,30.05,West,270,0.0,5.0,97,0.00,,,0.33,Rainwise IP-100,2013-07-15 01:45:00,
2013-07-14 21:51:00,72.0,71.3,30.05,West,270,0.0,4.0,98,0.00,,,0.33,Rainwise IP-100,2013-07-15 01:51:00,
2013-07-14 21:56:00,72.0,71.3,30.05,West,270,2.0,2.0,98,0.00,,,0.33,Rainwise IP-100,2013-07-15 01:56:00,
2013-07-14 22:01:00,72.0,71.3,30.05,West,270,1.0,3.0,98,0.00,,,0.33,Rainwise IP-100,2013-07-15 02:01:00,
2013-07-14 22:06:00,72.0,71.3,30.05,West,270,3.0,4.0,98,0.00,,,0.33,Rainwise IP-100,2013-07-15 02:06:00,
2013-07-14 22:11:00,72.0,71.3,30.05,WSW,247,2.0,4.0,97,0.00,,,0.33,Rainwise IP-100,2013-07-15 02:11:00,
2013-07-14 22:16:00,73.0,72.3,30.05,WSW,247,0.0,3.0,97,0.00,,,0.33,Rainwise IP-100,2013-07-15 02:16:00,
2013-07-14 22:21:00,73.0,72.3,30.05,NW,315,4.0,4.0,97,0.00,,,0.33,Rainwise IP-100,2013-07-15 02:21:00,
2013-07-14 22:26:00,73.0,72.3,30.05,WNW,292,0.0,5.0,97,0.00,,,0.33,Rainwise IP-100,2013-07-15 02:26:00,
2013-07-14 22:32:00,73.0,72.3,30.04,NW,315,2.0,4.0,97,0.00,,,0.33,Rainwise IP-100,2013-07-15 02:32:00,
2013-07-14 22:37:00,73.0,72.3,30.05,NW,315,2.0,3.0,97,0.00,,,0.33,Rainwise IP-100,2013-07-15 02:37:00,
2013-07-14 22:42:00,73.0,72.3,30.06,NNW,337,4.0,4.0,97,0.00,,,0.33,Rainwise IP-100,2013-07-15 02:42:00,
2013-07-14 22:47:00,73.0,72.3,30.06,North,360,5.0,7.0,97,0.00,,,0.33,Rainwise IP-100,2013-07-15 02:47:00,
2013-07-14 22:52:00,73.0,72.3,30.06,NNW,337,6.0,7.0,97,0.00,,,0.33,Rainwise IP-100,2013-07-15 02:52:00,
2013-07-14 22:57:00,73.0,72.3,30.06,North,360,5.0,7.0,98,0.00,,,0.33,Rainwise IP-100,2013-07-15 02:57:00,
2013-07-14 23:02:00,73.0,72.3,30.06,NW,315,5.0,7.0,98,0.00,,,0.33,Rainwise IP-100,2013-07-15 03:02:00,
2013-07-14 23:07:00,73.0,72.3,30.06,North,360,4.0,7.0,98,0.00,,,0.33,Rainwise IP-100,2013-07-15 03:07:00,
2013-07-14 23:12:00,73.0,72.3,30.06,North,360,4.0,7.0,98,0.00,,,0.33,Rainwise IP-100,2013-07-15 03:12:00,
2013-07-14 23:18:00,73.0,72.7,30.06,NNW,337,5.0,7.0,99,0.00,,,0.33,Rainwise IP-100,2013-07-15 03:18:00,
2013-07-14 23:23:00,73.0,72.3,30.06,NW,315,7.0,8.0,98,0.00,,,0.33,Rainwise IP-100,2013-07-15 03:23:00,
2013-07-14 23:28:00,73.0,72.3,30.06,North,360,6.0,12.0,98,0.00,,,0.33,Rainwise IP-100,2013-07-15 03:28:00,
2013-07-14 23:33:00,73.0,72.3,30.06,North,360,7.0,10.0,97,0.00,,,0.33,Rainwise IP-100,2013-07-15 03:33:00,
2013-07-14 23:38:00,74.0,73.0,30.06,NW,315,9.0,13.0,97,0.00,,,0.33,Rainwise IP-100,2013-07-15 03:38:00,
2013-07-14 23:43:00,74.0,73.0,30.06,North,360,7.0,10.0,97,0.00,,,0.33,Rainwise IP-100,2013-07-15 03:43:00,
2013-07-14 23:48:00,74.0,73.3,30.06,NE,45,10.0,14.0,98,0.00,,,0.33,Rainwise IP-100,2013-07-15 03:48:00,
2013-07-14 23:54:00,74.0,73.0,30.06,NE,45,17.0,17.0,96,0.00,,,0.33,Rainwise IP-100,2013-07-15 03:54:00,
2013-07-14 23:59:00,74.0,71.7,30.06,NE,45,12.0,19.0,92,0.00,,,0.33,Rainwise IP-100,2013-07-15 03:59:00,